Mattoon, IL

4:33 AM CDT on October 18, 2019 (GMT -0500)
Coles County Memorial

Weather History for KMTO - May, 2019

Change the Weather History Date:

Friday, May 24, 2019

  Actual Average Record
Temperature  
Mean Temperature 77 °F 66 °F  
Max Temperature 87 °F 76 °F 89 °F (1950)
Min Temperature 66 °F 55 °F 34 °F (1956)
Degree Days  
Heating Degree Days 0 3  
Month to date heating degree days 130 114  
Since 1 July heating degree days 5517 5376  
Cooling Degree Days 12 3  
Month to date cooling degree days 58 48  
Year to date cooling degree days 63 62  
Growing Degree Days 26 (Base 50)    
Moisture  
Dew Point 66 °F    
Average Humidity 72    
Maximum Humidity 93    
Minimum Humidity 51    
Precipitation  
Precipitation 0.02 in 0.13 in 0.68 in (1971)
Month to date precipitation 2.44 3.58  
Year to date precipitation 11.46 13.56  
Sea Level Pressure  
Sea Level Pressure 30.02 in    
Wind  
Wind Speed 8 mph (South)    
Max Wind Speed 18 mph    
Max Gust Speed 28 mph    
Visibility 10 miles    
Events Rain    
T = Trace of Precipitation, MM = Missing Value Source: NWS Daily Summary

Daily Weather History Graph

Daily Weather History Graph

Search for Another Location

Airport or City:

Astronomy

May. 24, 2019 Rise Set
Actual Time 5:32 AM CDT 8:08 PM CDT
Civil Twilight 5:01 AM CDT 8:39 PM CDT
Nautical Twilight 4:22 AM CDT 9:18 PM CDT
Astronomical Twilight 3:39 AM CDT 10:01 PM CDT
Moon 12:32 AM CDT (5/24) 10:32 AM CDT (5/24)
Length of Visible Light 15h 38m
Length of Day
14h 35m
Waning Gibbous, 68% of the Moon is Illuminated
May 24
Waning Gibbous
May 26
Last Quarter
Jun 3
New
Jun 10
First Quarter
Jun 17
Full

Hourly Weather History & Observations

Time (CDT) Temp. Heat Index Dew Point Humidity Pressure Visibility Wind Dir Wind Speed Gust Speed Precip Events Conditions
12:53 AM 66.0 °F - 64.9 °F 96% 30.06 in 9.0 mi Calm Calm - N/A   Clear
1:53 AM 66.0 °F - 64.0 °F 93% 30.05 in 10.0 mi Calm Calm - N/A   Scattered Clouds
2:53 AM 66.9 °F - 64.0 °F 90% 30.05 in 9.0 mi Calm Calm - N/A   Overcast
3:53 AM 66.9 °F - 63.0 °F 87% 30.05 in 10.0 mi ESE 4.6 mph - 0.00 in   Overcast
4:53 AM 66.0 °F - 62.1 °F 87% 30.05 in 10.0 mi SE 4.6 mph - 0.02 in   Mostly Cloudy
5:06 AM 66.0 °F - 63.0 °F 90% 30.06 in 10.0 mi SE 5.8 mph - N/A   Mostly Cloudy
5:14 AM 66.0 °F - 62.1 °F 87% 30.06 in 10.0 mi SE 6.9 mph - N/A   Mostly Cloudy
5:53 AM 66.0 °F - 62.1 °F 87% 30.06 in 10.0 mi SE 5.8 mph - 0.00 in Rain Light Rain
6:53 AM 68.0 °F - 64.0 °F 87% 30.06 in 10.0 mi SSE 5.8 mph - 0.00 in   Partly Cloudy
7:53 AM 71.1 °F - 66.0 °F 84% 30.07 in 10.0 mi South 8.1 mph - N/A   Clear
8:53 AM 75.0 °F - 70.0 °F 84% 30.06 in 10.0 mi South 6.9 mph - N/A   Clear
9:53 AM 78.1 °F - 70.0 °F 76% 30.06 in 10.0 mi SSW 10.4 mph - N/A   Clear
10:53 AM 81.0 °F 84.4 °F 70.0 °F 69% 30.06 in 10.0 mi SSW 8.1 mph 18.4 mph N/A   Clear
11:53 AM 82.9 °F 86.5 °F 69.1 °F 63% 30.06 in 10.0 mi SW 12.7 mph 19.6 mph N/A   Clear
12:53 PM 84.0 °F 88.4 °F 70.0 °F 63% 30.05 in 10.0 mi SSW 9.2 mph 18.4 mph N/A   Partly Cloudy
1:53 PM 84.9 °F 89.4 °F 70.0 °F 61% 30.05 in 10.0 mi WSW 6.9 mph - N/A   Mostly Cloudy
2:53 PM 86.0 °F 89.4 °F 68.0 °F 55% 30.03 in 10.0 mi SW 8.1 mph - N/A   Partly Cloudy
3:53 PM 86.0 °F 89.4 °F 68.0 °F 55% 30.01 in 10.0 mi SSW 9.2 mph 19.6 mph N/A   Scattered Clouds
4:53 PM 86.0 °F 88.8 °F 66.9 °F 53% 29.98 in 10.0 mi South 15.0 mph 21.9 mph N/A   Clear
5:53 PM 84.9 °F 87.6 °F 66.9 °F 55% 29.95 in 10.0 mi South 12.7 mph 25.3 mph N/A   Clear
6:53 PM 84.0 °F 87.0 °F 68.0 °F 58% 29.92 in 10.0 mi South 12.7 mph 23.0 mph 0.00 in Rain Light Rain
7:53 PM 81.0 °F 83.8 °F 68.0 °F 65% 29.93 in 10.0 mi SSW 8.1 mph - 0.00 in   Clear
8:53 PM 79.0 °F - 66.9 °F 66% 29.95 in 10.0 mi South 4.6 mph - N/A   Clear
9:53 PM 78.1 °F - 66.0 °F 66% 29.96 in 10.0 mi South 5.8 mph - N/A   Clear
10:53 PM 73.9 °F - 66.0 °F 76% 29.97 in 10.0 mi South 5.8 mph - N/A   Clear
11:53 PM 75.0 °F - 66.0 °F 73% 29.98 in 10.0 mi South 5.8 mph - N/A   Clear